TimeMDT,TemperatureF,Dew PointF,Humidity,Sea Level PressureIn,VisibilityMPH,Wind Direction,Wind SpeedMPH,Gust SpeedMPH,PrecipitationIn,Events,Conditions,WindDirDegrees,DateUTC
12:56 AM,44.1,25.0,47,29.83,10.0,North,6.9,-,N/A,,Clear,350,2012-10-03 06:56:00
1:56 AM,43.0,34.0,71,29.84,10.0,NNW,18.4,-,N/A,,Clear,340,2012-10-03 07:56:00
2:56 AM,45.0,34.0,65,29.87,10.0,North,11.5,-,N/A,,Scattered Clouds,350,2012-10-03 08:56:00
3:56 AM,44.1,34.0,68,29.90,10.0,West,15.0,24.2,N/A,,Mostly Cloudy,260,2012-10-03 09:56:00
4:56 AM,42.8,33.8,70,30.02,10.0,West,13.8,18.4,N/A,,Overcast,260,2012-10-03 10:56:00
5:56 AM,39.9,30.0,68,30.01,10.0,NNW,15.0,-,N/A,,Overcast,340,2012-10-03 11:56:00
6:40 AM,37.4,28.4,70,30.11,10.0,WNW,16.1,-,N/A,,Overcast,300,2012-10-03 12:40:00
6:56 AM,37.0,28.0,70,30.11,10.0,WNW,15.0,-,N/A,,Overcast,300,2012-10-03 12:56:00
7:34 AM,35.6,30.2,81,30.16,9.0,West,13.8,-,0.00,Snow,Light Snow,280,2012-10-03 13:34:00
7:56 AM,35.1,30.0,82,30.17,9.0,WNW,11.5,-,0.00,Snow,Light Snow,290,2012-10-03 13:56:00
8:56 AM,37.0,28.9,73,30.23,10.0,WNW,16.1,-,0.00,,Overcast,300,2012-10-03 14:56:00
9:56 AM,37.9,30.0,73,30.28,10.0,NW,17.3,-,N/A,,Overcast,320,2012-10-03 15:56:00
10:56 AM,39.9,30.0,68,30.31,10.0,NW,13.8,-,N/A,,Overcast,320,2012-10-03 16:56:00
11:56 AM,43.0,28.9,58,30.33,10.0,NW,13.8,21.9,N/A,,Overcast,310,2012-10-03 17:56:00
12:56 PM,45.0,32.0,60,30.35,10.0,NW,15.0,18.4,N/A,,Mostly Cloudy,320,2012-10-03 18:56:00
1:56 PM,45.0,28.9,53,30.37,10.0,North,13.8,-,0.00,,Mostly Cloudy,360,2012-10-03 19:56:00
2:56 PM,48.2,28.4,46,30.36,10.0,NNW,17.3,-,N/A,,Mostly Cloudy,330,2012-10-03 20:56:00
3:56 PM,48.0,27.0,44,30.37,10.0,North,18.4,24.2,N/A,,Scattered Clouds,350,2012-10-03 21:56:00
4:56 PM,45.0,28.0,52,30.41,10.0,North,16.1,-,N/A,,Overcast,350,2012-10-03 22:56:00
5:56 PM,43.0,27.0,53,30.43,10.0,NNW,16.1,-,N/A,,Overcast,340,2012-10-03 23:56:00
6:56 PM,37.9,30.9,76,30.47,10.0,SE,13.8,-,N/A,,Mostly Cloudy,130,2012-10-04 00:56:00
7:56 PM,37.0,30.9,79,30.49,10.0,Calm,Calm,-,N/A,,Overcast,0,2012-10-04 01:56:00
8:56 PM,35.1,30.0,82,30.49,10.0,SSW,9.2,-,N/A,,Partly Cloudy,210,2012-10-04 02:56:00
9:56 PM,35.6,26.6,70,30.40,10.0,WSW,8.1,-,N/A,,Overcast,240,2012-10-04 03:56:00
10:56 PM,34.0,27.0,75,30.48,10.0,Calm,Calm,-,N/A,,Overcast,0,2012-10-04 04:56:00
11:56 PM,34.0,25.0,70,30.47,10.0,SSW,4.6,-,N/A,,Overcast,210,2012-10-04 05:56:00